3691 Bede (1982 FT) |
Classification: Amor [NEO] SPK-ID: 2003691 |
[ show orbit diagram ]
Orbital Elements at Epoch 2459000.5 (2020-May-31.0) TDB
Reference: JPL 516 (heliocentric ecliptic J2000)
Element | Value | Uncertainty (1-sigma) | Units |
e | .2841953771560932 | 2.7212e-08 | |
a | 1.774496548678396 | 3.1349e-09 | au |
q | 1.270192832764554 | 4.7745e-08 | au |
i | 20.35824120192751 | 5.1235e-06 | deg |
node | 348.7467994723451 | 7.122e-06 | deg |
peri | 234.9702631004971 | 1.0922e-05 | deg |
M | 37.97432955183876 | 8.3188e-06 | deg |
tp | 2458909.425083947777 (2020-Feb-29.92508395) | 1.9867e-05 | TDB |
period | 863.398252602267 2.36 | 2.2879e-06 6.264e-09 | d yr |
n | .4169570634582204 | 1.1049e-09 | deg/d |
Q | 2.278800264592239 | 4.0258e-09 | au |
|
| | Orbit Determination Parameters
Additional Information
|
[ show covariance matrix ]
Physical Parameter Table
Parameter |
Symbol |
Value |
Units |
Sigma |
Reference |
Notes |
absolute magnitude |
H |
14.7 |
|
n/a |
MPO337281 |
|
diameter |
diameter |
4.3 |
km |
n/a |
Hazards due to Comets and Asteroids (1994), Ed. T. Gehrels, pp.540-543 |
based on assumed medium albedo (0.15) |
rotation period |
rot_per |
226.8 |
h |
n/a |
LCDB (Rev. 2020-October); Warner et al., 2009 |
Result based on less than full coverage, so that the period may be wrong by 30 percent or so. Published Reference List: [Pravec, P.; Wolf, M.; Sarounova, L. (1998) Icarus 136, 124-153.] [Pravec, P.; et al. (2005) Icarus 173, 108-131.] |
geometric albedo |
albedo |
0.515 |
|
0.109 |
urn:nasa:pds:neowise_diameters_albedos::2.0[neos] (http://adsabs.harvard.edu/abs/2016AJ....152...63N) |
|
SMASSII spectral type |
spec_B |
Xc |
|
n/a |
EAR-A-5-DDR-TAXONOMY-V4.0 |
based on a high-resolution spectrum by Xu et al. (1995) or Bus and Binzel (2002) |
|
3691 Bede | Discovered 1982 Mar. 29 by L. E. Gonzalez at Cerro El Roble. |
The Venerable Bede (c. 672-735), the "Father of English History" who popularized the A.D. reckoning of years, compiled a history of England since the time of Caesar. The name follows a suggestion by B. Hafferty in the BBC Word of Mouth competition in this centenary year of St. Bede's School, Bradford, West Yorkshire. |
NOTE: some special characters may not display properly (any characters within {} are an attempt to place the proper accent above a character) |
Reference: 20000523/MPCPages.arc | Last Updated: 2013-03-29 |
|
[ show close-approach data ]
|
|